Time,TemperatureF,DewpointF,PressureIn,WindDirection,WindDirectionDegrees,WindSpeedMPH,WindSpeedGustMPH,Humidity,HourlyPrecipIn,Conditions,Clouds,dailyrainin,SoftwareType,DateUTC
2013-01-31 00:00:00,58.6,57.5,29.43,South,184,8.0,0.0,96,0.01,,,0.00,WeatherTracker,2013-01-31 05:00:00,
2013-01-31 00:05:00,58.7,57.3,29.43,SW,229,8.0,0.0,95,0.01,,,0.00,WeatherTracker,2013-01-31 05:05:00,
2013-01-31 00:10:00,59.0,57.6,29.43,WSW,254,9.0,0.0,95,0.01,,,0.00,WeatherTracker,2013-01-31 05:10:00,
2013-01-31 00:15:00,59.2,57.5,29.43,West,269,15.0,0.0,94,0.00,,,0.00,WeatherTracker,2013-01-31 05:15:00,
2013-01-31 00:20:00,59.4,57.7,29.42,SW,217,10.0,0.0,94,0.00,,,0.00,WeatherTracker,2013-01-31 05:20:00,
2013-01-31 00:25:00,59.5,57.8,29.42,SW,228,7.0,0.0,94,0.00,,,0.00,WeatherTracker,2013-01-31 05:25:00,
2013-01-31 00:30:00,59.5,57.8,29.41,SSE,153,13.0,0.0,94,0.00,,,0.00,WeatherTracker,2013-01-31 05:30:00,
2013-01-31 00:40:00,59.7,58.0,29.40,South,173,14.0,0.0,94,0.00,,,0.00,WeatherTracker,2013-01-31 05:40:00,
2013-01-31 00:45:00,59.7,58.0,29.39,SE,142,24.0,0.0,94,0.00,,,0.00,WeatherTracker,2013-01-31 05:45:00,
2013-01-31 00:50:00,59.9,58.2,29.39,WSW,244,20.0,0.0,94,0.00,,,0.00,WeatherTracker,2013-01-31 05:50:00,
2013-01-31 00:55:00,59.9,58.2,29.39,South,169,10.0,0.0,94,0.00,,,0.00,WeatherTracker,2013-01-31 05:55:00,
2013-01-31 01:05:00,59.8,58.1,29.38,SW,226,9.0,0.0,94,0.00,,,0.00,WeatherTracker,2013-01-31 06:05:00,
2013-01-31 01:15:00,59.5,58.1,29.37,SSW,213,7.0,0.0,95,0.01,,,0.01,WeatherTracker,2013-01-31 06:15:00,
2013-01-31 01:20:00,59.4,58.0,29.37,SW,230,9.0,0.0,95,0.01,,,0.01,WeatherTracker,2013-01-31 06:20:00,
2013-01-31 01:25:00,59.5,58.1,29.34,SW,236,8.0,0.0,95,0.01,,,0.01,WeatherTracker,2013-01-31 06:25:00,
2013-01-31 01:30:00,59.5,58.1,29.35,SSW,211,4.0,0.0,95,0.01,,,0.01,WeatherTracker,2013-01-31 06:30:00,
2013-01-31 01:40:00,59.5,58.1,29.34,SW,219,3.0,0.0,95,0.01,,,0.01,WeatherTracker,2013-01-31 06:40:00,
2013-01-31 01:45:00,59.5,58.1,29.34,West,261,6.0,0.0,95,0.01,,,0.01,WeatherTracker,2013-01-31 06:45:00,
2013-01-31 01:50:00,59.5,58.1,29.33,WSW,237,23.0,0.0,95,0.02,,,0.02,WeatherTracker,2013-01-31 06:50:00,
2013-01-31 02:00:00,59.5,58.1,29.32,SSW,202,9.0,0.0,95,0.02,,,0.02,WeatherTracker,2013-01-31 07:00:00,
2013-01-31 02:05:00,59.6,58.2,29.32,SSW,207,9.0,0.0,95,0.03,,,0.03,WeatherTracker,2013-01-31 07:05:00,
2013-01-31 02:10:00,59.7,58.3,29.32,SW,221,15.0,0.0,95,0.02,,,0.03,WeatherTracker,2013-01-31 07:10:00,
2013-01-31 02:15:00,59.8,58.4,29.31,WSW,250,14.0,0.0,95,0.02,,,0.03,WeatherTracker,2013-01-31 07:15:00,
2013-01-31 02:25:00,60.1,58.7,29.30,SSW,210,10.0,0.0,95,0.03,,,0.04,WeatherTracker,2013-01-31 07:25:00,
2013-01-31 02:30:00,60.2,58.8,29.28,SW,217,20.0,0.0,95,0.03,,,0.04,WeatherTracker,2013-01-31 07:30:00,
2013-01-31 02:40:00,60.5,59.1,29.27,SW,227,16.0,0.0,95,0.04,,,0.05,WeatherTracker,2013-01-31 07:40:00,
2013-01-31 02:45:00,60.5,59.1,29.26,SW,229,15.0,0.0,95,0.04,,,0.05,WeatherTracker,2013-01-31 07:45:00,
2013-01-31 02:55:00,60.8,59.1,29.26,WSW,246,8.0,0.0,94,0.03,,,0.05,WeatherTracker,2013-01-31 07:55:00,
2013-01-31 03:00:00,60.8,59.1,29.24,WSW,258,25.0,0.0,94,0.04,,,0.06,WeatherTracker,2013-01-31 08:00:00,
2013-01-31 03:10:00,60.7,59.0,29.22,WSW,244,11.0,0.0,94,0.03,,,0.06,WeatherTracker,2013-01-31 08:10:00,
2013-01-31 03:15:00,60.7,59.0,29.22,SW,222,17.0,0.0,94,0.03,,,0.06,WeatherTracker,2013-01-31 08:15:00,
2013-01-31 03:20:00,60.8,59.1,29.21,SW,221,28.0,0.0,94,0.04,,,0.07,WeatherTracker,2013-01-31 08:20:00,
2013-01-31 03:30:00,60.8,58.8,29.20,WSW,250,18.0,0.0,93,0.03,,,0.07,WeatherTracker,2013-01-31 08:30:00,
2013-01-31 03:35:00,60.9,58.9,29.19,SW,234,18.0,0.0,93,0.03,,,0.07,WeatherTracker,2013-01-31 08:35:00,
2013-01-31 03:45:00,60.9,58.9,29.18,SSW,192,6.0,0.0,93,0.02,,,0.07,WeatherTracker,2013-01-31 08:45:00,
2013-01-31 03:50:00,60.9,58.9,29.17,SW,236,16.0,0.0,93,0.03,,,0.08,WeatherTracker,2013-01-31 08:50:00,
2013-01-31 03:55:00,60.9,58.9,29.17,WNW,296,7.0,0.0,93,0.03,,,0.08,WeatherTracker,2013-01-31 08:55:00,
2013-01-31 04:05:00,60.9,58.9,29.16,NW,323,8.0,0.0,93,0.03,,,0.09,WeatherTracker,2013-01-31 09:05:00,
2013-01-31 04:10:00,60.9,58.9,29.15,SW,227,18.0,0.0,93,0.03,,,0.09,WeatherTracker,2013-01-31 09:10:00,
2013-01-31 04:20:00,60.8,58.8,29.14,SW,234,18.0,0.0,93,0.03,,,0.10,WeatherTracker,2013-01-31 09:20:00,
2013-01-31 04:25:00,60.8,59.1,29.14,WSW,252,15.0,0.0,94,0.03,,,0.10,WeatherTracker,2013-01-31 09:25:00,
2013-01-31 04:30:00,60.8,59.1,29.14,WNW,286,12.0,0.0,94,0.04,,,0.11,WeatherTracker,2013-01-31 09:30:00,
2013-01-31 04:40:00,60.8,59.1,29.12,SW,225,18.0,0.0,94,0.05,,,0.12,WeatherTracker,2013-01-31 09:40:00,
2013-01-31 04:45:00,60.9,59.2,29.11,SSE,156,10.0,0.0,94,0.06,,,0.13,WeatherTracker,2013-01-31 09:45:00,
2013-01-31 04:50:00,60.9,59.2,29.11,SW,232,19.0,0.0,94,0.05,,,0.13,WeatherTracker,2013-01-31 09:50:00,
2013-01-31 04:55:00,60.9,58.9,29.11,SSW,198,17.0,0.0,93,0.07,,,0.15,WeatherTracker,2013-01-31 09:55:00,
2013-01-31 05:00:00,60.9,58.9,29.11,SW,225,13.0,0.0,93,0.08,,,0.17,WeatherTracker,2013-01-31 10:00:00,
2013-01-31 05:10:00,61.0,59.0,29.09,West,277,17.0,0.0,93,0.09,,,0.18,WeatherTracker,2013-01-31 10:10:00,
2013-01-31 05:15:00,60.9,58.9,29.08,WSW,251,6.0,0.0,93,0.13,,,0.22,WeatherTracker,2013-01-31 10:15:00,
2013-01-31 05:20:00,60.9,59.2,29.07,SW,223,22.0,0.0,94,0.16,,,0.26,WeatherTracker,2013-01-31 10:20:00,
2013-01-31 05:30:00,60.7,59.0,29.06,WNW,285,10.0,0.0,94,0.22,,,0.33,WeatherTracker,2013-01-31 10:30:00,
2013-01-31 05:35:00,60.5,58.8,29.04,SSE,159,6.0,0.0,94,0.25,,,0.36,WeatherTracker,2013-01-31 10:35:00,
2013-01-31 05:45:00,60.5,58.8,29.02,SW,226,17.0,0.0,94,0.27,,,0.40,WeatherTracker,2013-01-31 10:45:00,
2013-01-31 05:50:00,60.5,58.8,29.01,WNW,301,4.0,0.0,94,0.32,,,0.45,WeatherTracker,2013-01-31 10:50:00,
2013-01-31 06:00:00,60.5,59.1,29.01,WSW,250,24.0,0.0,95,0.34,,,0.51,WeatherTracker,2013-01-31 11:00:00,
2013-01-31 06:10:00,60.5,59.1,29.02,West,271,7.0,0.0,95,0.38,,,0.56,WeatherTracker,2013-01-31 11:10:00,
2013-01-31 06:15:00,60.8,59.1,29.03,West,259,7.0,0.0,94,0.35,,,0.57,WeatherTracker,2013-01-31 11:15:00,
2013-01-31 06:20:00,60.9,59.2,29.04,NW,309,13.0,0.0,94,0.34,,,0.59,WeatherTracker,2013-01-31 11:20:00,
2013-01-31 06:25:00,61.0,59.3,29.04,West,271,12.0,0.0,94,0.32,,,0.61,WeatherTracker,2013-01-31 11:25:00,
2013-01-31 06:30:00,60.9,59.2,29.05,West,272,17.0,0.0,94,0.31,,,0.64,WeatherTracker,2013-01-31 11:30:00,
2013-01-31 06:35:00,60.8,58.8,29.05,West,264,12.0,0.0,93,0.29,,,0.65,WeatherTracker,2013-01-31 11:35:00,
2013-01-31 06:45:00,60.2,56.9,29.06,WNW,282,11.0,0.0,89,0.27,,,0.67,WeatherTracker,2013-01-31 11:45:00,
2013-01-31 06:55:00,59.9,56.3,29.05,WSW,250,14.0,0.0,88,0.19,,,0.67,WeatherTracker,2013-01-31 11:55:00,
2013-01-31 07:00:00,59.8,56.2,29.04,West,266,4.0,0.0,88,0.16,,,0.67,WeatherTracker,2013-01-31 12:00:00,
2013-01-31 07:05:00,59.5,56.3,29.04,WNW,294,9.0,0.0,89,0.13,,,0.67,WeatherTracker,2013-01-31 12:05:00,
2013-01-31 07:10:00,59.3,56.1,29.04,WSW,238,3.0,0.0,89,0.11,,,0.67,WeatherTracker,2013-01-31 12:10:00,
2013-01-31 07:20:00,59.1,56.2,29.02,WSW,252,5.0,0.0,90,0.08,,,0.67,WeatherTracker,2013-01-31 12:20:00,
2013-01-31 07:25:00,59.0,56.4,29.01,WNW,302,3.0,0.0,91,0.06,,,0.67,WeatherTracker,2013-01-31 12:25:00,
2013-01-31 07:30:00,58.7,56.4,28.99,West,279,11.0,0.0,92,0.03,,,0.67,WeatherTracker,2013-01-31 12:30:00,
2013-01-31 07:40:00,58.4,56.1,29.00,West,275,4.0,0.0,92,0.01,,,0.67,WeatherTracker,2013-01-31 12:40:00,
2013-01-31 07:50:00,58.2,55.6,28.99,WNW,283,12.0,0.0,91,0.01,,,0.68,WeatherTracker,2013-01-31 12:50:00,
2013-01-31 07:55:00,58.1,55.5,28.99,SW,224,20.0,0.0,91,0.01,,,0.68,WeatherTracker,2013-01-31 12:55:00,
2013-01-31 08:05:00,58.1,55.2,28.99,WSW,250,16.0,0.0,90,0.01,,,0.68,WeatherTracker,2013-01-31 13:05:00,
2013-01-31 08:10:00,58.1,54.9,28.98,West,274,11.0,0.0,89,0.01,,,0.68,WeatherTracker,2013-01-31 13:10:00,
2013-01-31 08:20:00,58.1,54.9,28.97,WNW,291,11.0,0.0,89,0.01,,,0.68,WeatherTracker,2013-01-31 13:20:00,
2013-01-31 08:30:00,58.0,54.5,28.97,NW,308,3.0,0.0,88,0.01,,,0.68,WeatherTracker,2013-01-31 13:30:00,
2013-01-31 08:35:00,58.0,54.5,28.96,West,259,6.0,0.0,88,0.01,,,0.68,WeatherTracker,2013-01-31 13:35:00,
2013-01-31 08:45:00,57.9,53.7,28.97,SW,214,4.0,0.0,86,0.00,,,0.68,WeatherTracker,2013-01-31 13:45:00,
2013-01-31 08:50:00,57.8,53.6,28.97,SW,225,17.0,0.0,86,0.00,,,0.68,WeatherTracker,2013-01-31 13:50:00,
2013-01-31 08:55:00,57.8,53.6,28.97,SW,220,6.0,0.0,86,0.00,,,0.68,WeatherTracker,2013-01-31 13:55:00,
2013-01-31 09:00:00,57.8,53.6,28.97,NW,317,12.0,0.0,86,0.00,,,0.68,WeatherTracker,2013-01-31 14:00:00,
2013-01-31 09:10:00,57.7,53.5,28.98,West,259,8.0,0.0,86,0.00,,,0.68,WeatherTracker,2013-01-31 14:10:00,
2013-01-31 09:20:00,57.6,53.1,28.98,West,279,6.0,0.0,85,0.00,,,0.68,WeatherTracker,2013-01-31 14:20:00,
2013-01-31 09:30:00,50.3,43.7,29.06,NNW,332,8.0,0.0,78,0.03,,,0.71,WeatherTracker,2013-01-31 14:30:00,
2013-01-31 09:35:00,47.4,42.5,29.07,NNW,348,5.0,0.0,83,0.05,,,0.73,WeatherTracker,2013-01-31 14:35:00,
2013-01-31 09:45:00,45.4,41.2,29.08,North,355,8.0,0.0,85,0.06,,,0.74,WeatherTracker,2013-01-31 14:45:00,
2013-01-31 09:50:00,44.9,41.3,29.08,West,274,9.0,0.0,87,0.06,,,0.74,WeatherTracker,2013-01-31 14:50:00,
2013-01-31 09:55:00,44.5,40.6,29.09,North,355,3.0,0.0,86,0.06,,,0.74,WeatherTracker,2013-01-31 14:55:00,
2013-01-31 10:05:00,43.6,39.7,29.09,NW,305,7.0,0.0,86,0.06,,,0.74,WeatherTracker,2013-01-31 15:05:00,
2013-01-31 10:10:00,43.4,39.8,29.10,NNE,17,7.0,0.0,87,0.06,,,0.74,WeatherTracker,2013-01-31 15:10:00,
2013-01-31 10:15:00,43.4,40.4,29.10,NNW,330,3.0,0.0,89,0.06,,,0.74,WeatherTracker,2013-01-31 15:15:00,
2013-01-31 10:20:00,43.8,40.8,29.11,West,267,6.0,0.0,89,0.06,,,0.74,WeatherTracker,2013-01-31 15:20:00,
2013-01-31 10:30:00,43.7,40.4,29.12,East,85,2.0,0.0,88,0.03,,,0.74,WeatherTracker,2013-01-31 15:30:00,
2013-01-31 10:35:00,44.2,39.7,29.13,NNE,12,2.0,0.0,84,0.01,,,0.74,WeatherTracker,2013-01-31 15:35:00,
2013-01-31 10:40:00,44.4,39.9,29.14,NE,40,0.0,0.0,84,0.01,,,0.74,WeatherTracker,2013-01-31 15:40:00,
2013-01-31 10:50:00,44.5,39.7,29.14,ESE,117,3.0,0.0,83,0.00,,,0.74,WeatherTracker,2013-01-31 15:50:00,
2013-01-31 10:55:00,44.6,39.5,29.15,East,98,2.0,0.0,82,0.00,,,0.74,WeatherTracker,2013-01-31 15:55:00,
2013-01-31 11:00:00,44.5,39.0,29.15,SE,141,3.0,0.0,81,0.00,,,0.74,WeatherTracker,2013-01-31 16:00:00,
2013-01-31 11:05:00,44.2,38.4,29.16,NE,36,5.0,0.0,80,0.00,,,0.74,WeatherTracker,2013-01-31 16:05:00,
2013-01-31 11:10:00,43.9,38.5,29.17,NNE,19,2.0,0.0,81,0.00,,,0.74,WeatherTracker,2013-01-31 16:10:00,
2013-01-31 11:15:00,43.6,38.2,29.16,ESE,113,3.0,0.0,81,0.00,,,0.74,WeatherTracker,2013-01-31 16:15:00,
2013-01-31 11:25:00,43.6,38.2,29.16,SE,132,3.0,0.0,81,0.00,,,0.74,WeatherTracker,2013-01-31 16:25:00,
2013-01-31 11:35:00,45.3,39.2,29.17,ESE,115,3.0,0.0,79,0.00,,,0.74,WeatherTracker,2013-01-31 16:35:00,
2013-01-31 11:40:00,45.5,38.7,29.17,ESE,110,8.0,0.0,77,0.00,,,0.74,WeatherTracker,2013-01-31 16:40:00,
2013-01-31 11:45:00,45.5,38.0,29.17,ESE,123,2.0,0.0,75,0.00,,,0.74,WeatherTracker,2013-01-31 16:45:00,
2013-01-31 11:50:00,45.3,36.5,29.18,NE,55,6.0,0.0,71,0.00,,,0.74,WeatherTracker,2013-01-31 16:50:00,
2013-01-31 12:00:00,45.4,35.8,29.18,East,94,17.0,0.0,69,0.00,,,0.74,WeatherTracker,2013-01-31 17:00:00,
2013-01-31 12:05:00,46.7,35.2,29.18,North,9,8.0,0.0,64,0.00,,,0.74,WeatherTracker,2013-01-31 17:05:00,
2013-01-31 12:15:00,46.1,35.0,29.18,West,277,3.0,0.0,65,0.00,,,0.74,WeatherTracker,2013-01-31 17:15:00,
2013-01-31 12:25:00,46.0,35.3,29.19,NW,320,9.0,0.0,66,0.00,,,0.74,WeatherTracker,2013-01-31 17:25:00,
2013-01-31 12:30:00,46.1,35.0,29.19,NW,306,6.0,0.0,65,0.00,,,0.74,WeatherTracker,2013-01-31 17:30:00,
2013-01-31 12:35:00,46.3,34.8,29.20,NW,319,4.0,0.0,64,0.00,,,0.74,WeatherTracker,2013-01-31 17:35:00,
2013-01-31 12:45:00,46.3,32.8,29.20,NE,40,5.0,0.0,59,0.00,,,0.74,WeatherTracker,2013-01-31 17:45:00,
2013-01-31 12:50:00,46.5,32.5,29.20,NW,320,10.0,0.0,58,0.00,,,0.74,WeatherTracker,2013-01-31 17:50:00,
2013-01-31 12:55:00,46.7,31.8,29.21,WNW,293,5.0,0.0,56,0.00,,,0.74,WeatherTracker,2013-01-31 17:55:00,
2013-01-31 13:05:00,46.7,30.5,29.20,WNW,294,10.0,0.0,53,0.00,,,0.74,WeatherTracker,2013-01-31 18:05:00,
2013-01-31 13:10:00,46.7,29.5,29.21,NW,313,12.0,0.0,51,0.00,,,0.74,WeatherTracker,2013-01-31 18:10:00,
2013-01-31 13:20:00,46.2,27.6,29.23,NNE,31,6.0,0.0,48,0.00,,,0.74,WeatherTracker,2013-01-31 18:20:00,
2013-01-31 13:25:00,46.1,27.5,29.23,NNW,331,13.0,0.0,48,0.00,,,0.74,WeatherTracker,2013-01-31 18:25:00,
2013-01-31 13:35:00,45.7,25.0,29.24,NW,307,10.0,0.0,44,0.00,,,0.74,WeatherTracker,2013-01-31 18:35:00,
2013-01-31 13:40:00,45.5,25.4,29.24,NNW,334,4.0,0.0,45,0.00,,,0.74,WeatherTracker,2013-01-31 18:40:00,
2013-01-31 13:45:00,45.6,25.0,29.24,North,5,12.0,0.0,44,0.00,,,0.74,WeatherTracker,2013-01-31 18:45:00,
2013-01-31 13:50:00,45.5,24.9,29.25,NE,44,8.0,0.0,44,0.00,,,0.74,WeatherTracker,2013-01-31 18:50:00,
2013-01-31 13:55:00,45.3,24.7,29.25,WNW,303,11.0,0.0,44,0.00,,,0.74,WeatherTracker,2013-01-31 18:55:00,
2013-01-31 14:00:00,45.2,23.5,29.24,WNW,300,18.0,0.0,42,0.00,,,0.74,WeatherTracker,2013-01-31 19:00:00,
2013-01-31 14:05:00,45.0,23.3,29.25,NW,321,9.0,0.0,42,0.01,,,0.75,WeatherTracker,2013-01-31 19:05:00,
2013-01-31 14:15:00,45.2,24.6,29.26,NNW,334,14.0,0.0,44,0.01,,,0.75,WeatherTracker,2013-01-31 19:15:00,
2013-01-31 14:20:00,45.0,22.1,29.26,SW,234,10.0,0.0,40,0.01,,,0.75,WeatherTracker,2013-01-31 19:20:00,
2013-01-31 14:25:00,44.7,22.5,29.27,NNW,333,4.0,0.0,41,0.01,,,0.75,WeatherTracker,2013-01-31 19:25:00,
2013-01-31 14:30:00,44.7,21.3,29.28,West,281,7.0,0.0,39,0.01,,,0.75,WeatherTracker,2013-01-31 19:30:00,
2013-01-31 14:35:00,44.6,21.2,29.28,WNW,296,7.0,0.0,39,0.01,,,0.75,WeatherTracker,2013-01-31 19:35:00,
2013-01-31 14:40:00,44.6,22.4,29.29,NW,311,20.0,0.0,41,0.01,,,0.75,WeatherTracker,2013-01-31 19:40:00,
2013-01-31 14:45:00,44.4,21.0,29.30,NW,308,13.0,0.0,39,0.01,,,0.75,WeatherTracker,2013-01-31 19:45:00,
2013-01-31 14:50:00,44.2,20.2,29.30,West,269,14.0,0.0,38,0.01,,,0.75,WeatherTracker,2013-01-31 19:50:00,
2013-01-31 15:00:00,43.9,20.6,29.30,NW,321,11.0,0.0,39,0.01,,,0.75,WeatherTracker,2013-01-31 20:00:00,
2013-01-31 15:05:00,44.1,21.3,29.31,NW,310,3.0,0.0,40,0.00,,,0.75,WeatherTracker,2013-01-31 20:05:00,
2013-01-31 15:10:00,44.2,21.4,29.31,North,5,5.0,0.0,40,0.00,,,0.75,WeatherTracker,2013-01-31 20:10:00,
2013-01-31 15:15:00,44.2,22.0,29.32,NNE,30,5.0,0.0,41,0.00,,,0.75,WeatherTracker,2013-01-31 20:15:00,
2013-01-31 15:20:00,44.3,22.1,29.32,North,9,3.0,0.0,41,0.00,,,0.75,WeatherTracker,2013-01-31 20:20:00,
2013-01-31 15:25:00,44.4,22.2,29.32,NNW,327,5.0,0.0,41,0.00,,,0.75,WeatherTracker,2013-01-31 20:25:00,
2013-01-31 15:35:00,43.9,21.7,29.32,NW,307,3.0,0.0,41,0.00,,,0.75,WeatherTracker,2013-01-31 20:35:00,
2013-01-31 15:45:00,43.4,21.9,29.33,North,355,3.0,0.0,42,0.00,,,0.75,WeatherTracker,2013-01-31 20:45:00,
2013-01-31 15:50:00,43.1,21.6,29.33,NW,315,7.0,0.0,42,0.00,,,0.75,WeatherTracker,2013-01-31 20:50:00,
2013-01-31 16:00:00,42.7,21.8,29.34,NNW,336,6.0,0.0,43,0.00,,,0.75,WeatherTracker,2013-01-31 21:00:00,
2013-01-31 16:05:00,42.7,21.8,29.35,NNW,340,6.0,0.0,43,0.00,,,0.75,WeatherTracker,2013-01-31 21:05:00,
2013-01-31 16:15:00,42.5,21.0,29.35,NNW,338,2.0,0.0,42,0.00,,,0.75,WeatherTracker,2013-01-31 21:15:00,
2013-01-31 16:25:00,42.2,21.3,29.35,WNW,294,4.0,0.0,43,0.00,,,0.75,WeatherTracker,2013-01-31 21:25:00,
2013-01-31 16:35:00,41.8,21.0,29.36,WNW,283,5.0,0.0,43,0.00,,,0.75,WeatherTracker,2013-01-31 21:35:00,
2013-01-31 16:40:00,41.7,20.9,29.36,NW,311,5.0,0.0,43,0.00,,,0.75,WeatherTracker,2013-01-31 21:40:00,
2013-01-31 16:50:00,41.5,20.1,29.37,WNW,284,5.0,0.0,42,0.00,,,0.75,WeatherTracker,2013-01-31 21:50:00,
2013-01-31 16:55:00,41.4,20.0,29.37,WNW,292,4.0,0.0,42,0.00,,,0.75,WeatherTracker,2013-01-31 21:55:00,
2013-01-31 17:00:00,41.2,19.9,29.38,NW,325,21.0,0.0,42,0.00,,,0.75,WeatherTracker,2013-01-31 22:00:00,
2013-01-31 17:10:00,40.6,18.8,29.38,NNW,334,7.0,0.0,41,0.00,,,0.75,WeatherTracker,2013-01-31 22:10:00,
2013-01-31 17:20:00,40.2,19.0,29.39,NNW,329,7.0,0.0,42,0.00,,,0.75,WeatherTracker,2013-01-31 22:20:00,
2013-01-31 17:25:00,40.0,18.8,29.39,NW,310,9.0,0.0,42,0.00,,,0.75,WeatherTracker,2013-01-31 22:25:00,
2013-01-31 17:35:00,39.7,18.5,29.41,NW,326,1.0,0.0,42,0.00,,,0.75,WeatherTracker,2013-01-31 22:35:00,
2013-01-31 17:40:00,39.6,19.0,29.41,North,350,0.0,0.0,43,0.00,,,0.75,WeatherTracker,2013-01-31 22:40:00,
2013-01-31 17:45:00,39.5,19.4,29.41,North,5,6.0,0.0,44,0.00,,,0.75,WeatherTracker,2013-01-31 22:45:00,
2013-01-31 17:50:00,39.3,19.2,29.42,NNW,334,5.0,0.0,44,0.00,,,0.75,WeatherTracker,2013-01-31 22:50:00,
2013-01-31 17:55:00,39.2,19.7,29.42,East,89,9.0,0.0,45,0.00,,,0.75,WeatherTracker,2013-01-31 22:55:00,
2013-01-31 18:05:00,36.6,19.7,29.43,East,99,2.0,0.0,50,0.00,,,0.75,WeatherTracker,2013-01-31 23:05:00,
2013-01-31 18:10:00,36.3,19.9,29.43,WSW,247,7.0,0.0,51,0.00,,,0.75,WeatherTracker,2013-01-31 23:10:00,
2013-01-31 18:20:00,38.2,20.7,29.44,NNW,342,3.0,0.0,49,0.00,,,0.75,WeatherTracker,2013-01-31 23:20:00,
2013-01-31 18:25:00,38.1,20.6,29.44,West,273,8.0,0.0,49,0.00,,,0.75,WeatherTracker,2013-01-31 23:25:00,
2013-01-31 18:30:00,38.0,20.6,29.45,NW,314,3.0,0.0,49,0.00,,,0.75,WeatherTracker,2013-01-31 23:30:00,
2013-01-31 18:40:00,37.8,20.4,29.46,NNE,15,3.0,0.0,49,0.00,,,0.75,WeatherTracker,2013-01-31 23:40:00,
2013-01-31 18:45:00,37.7,20.3,29.46,NW,306,4.0,0.0,49,0.00,,,0.75,WeatherTracker,2013-01-31 23:45:00,
2013-01-31 18:55:00,37.5,19.1,29.47,NNW,340,7.0,0.0,47,0.00,,,0.75,WeatherTracker,2013-01-31 23:55:00,
2013-01-31 19:00:00,37.5,18.6,29.47,NW,317,5.0,0.0,46,0.00,,,0.75,WeatherTracker,2013-02-01 00:00:00,
2013-01-31 19:05:00,37.3,18.4,29.47,NNE,26,2.0,0.0,46,0.00,,,0.75,WeatherTracker,2013-02-01 00:05:00,
2013-01-31 19:10:00,37.1,18.3,29.47,North,360,8.0,0.0,46,0.00,,,0.75,WeatherTracker,2013-02-01 00:10:00,
2013-01-31 19:15:00,37.0,18.2,29.48,WNW,301,16.0,0.0,46,0.00,,,0.75,WeatherTracker,2013-02-01 00:15:00,
2013-01-31 19:25:00,36.8,17.5,29.48,NW,306,4.0,0.0,45,0.00,,,0.75,WeatherTracker,2013-02-01 00:25:00,
2013-01-31 19:35:00,36.6,16.8,29.49,West,275,3.0,0.0,44,0.00,,,0.75,WeatherTracker,2013-02-01 00:35:00,
2013-01-31 19:40:00,36.6,17.3,29.49,NNW,337,7.0,0.0,45,0.00,,,0.75,WeatherTracker,2013-02-01 00:40:00,
2013-01-31 19:50:00,36.4,17.1,29.50,WNW,296,3.0,0.0,45,0.00,,,0.75,WeatherTracker,2013-02-01 00:50:00,
2013-01-31 19:55:00,36.3,17.5,29.50,WNW,298,6.0,0.0,46,0.00,,,0.75,WeatherTracker,2013-02-01 00:55:00,
2013-01-31 20:05:00,36.0,17.3,29.50,NNW,346,2.0,0.0,46,0.00,,,0.75,WeatherTracker,2013-02-01 01:05:00,
2013-01-31 20:10:00,35.7,17.0,29.50,NW,320,3.0,0.0,46,0.00,,,0.75,WeatherTracker,2013-02-01 01:10:00,
2013-01-31 20:15:00,35.5,17.3,29.51,North,360,1.0,0.0,47,0.00,,,0.75,WeatherTracker,2013-02-01 01:15:00,
2013-01-31 20:20:00,35.4,17.2,29.51,NW,320,9.0,0.0,47,0.00,,,0.75,WeatherTracker,2013-02-01 01:20:00,
2013-01-31 20:25:00,35.2,17.0,29.51,NNW,329,6.0,0.0,47,0.00,,,0.75,WeatherTracker,2013-02-01 01:25:00,
2013-01-31 20:30:00,35.1,17.4,29.51,NNW,344,6.0,0.0,48,0.00,,,0.75,WeatherTracker,2013-02-01 01:30:00,
2013-01-31 20:35:00,34.9,17.7,29.52,West,280,7.0,0.0,49,0.00,,,0.75,WeatherTracker,2013-02-01 01:35:00,
2013-01-31 20:40:00,34.7,18.0,29.52,NNW,331,3.0,0.0,50,0.00,,,0.75,WeatherTracker,2013-02-01 01:40:00,
2013-01-31 20:50:00,34.4,18.2,29.52,NNW,337,2.0,0.0,51,0.00,,,0.75,WeatherTracker,2013-02-01 01:50:00,
2013-01-31 20:55:00,34.3,18.5,29.52,North,355,2.0,0.0,52,0.00,,,0.75,WeatherTracker,2013-02-01 01:55:00,
2013-01-31 21:05:00,34.2,18.4,29.53,North,5,7.0,0.0,52,0.00,,,0.75,WeatherTracker,2013-02-01 02:05:00,
2013-01-31 21:10:00,34.3,18.1,29.54,WNW,300,8.0,0.0,51,0.00,,,0.75,WeatherTracker,2013-02-01 02:10:00,
2013-01-31 21:20:00,34.3,17.6,29.54,North,5,6.0,0.0,50,0.00,,,0.75,WeatherTracker,2013-02-01 02:20:00,
2013-01-31 21:25:00,34.3,18.1,29.54,North,355,5.0,0.0,51,0.00,,,0.75,WeatherTracker,2013-02-01 02:25:00,
2013-01-31 21:30:00,34.3,18.1,29.55,NW,319,5.0,0.0,51,0.00,,,0.75,WeatherTracker,2013-02-01 02:30:00,
2013-01-31 21:40:00,34.2,17.5,29.55,NW,325,12.0,0.0,50,0.00,,,0.75,WeatherTracker,2013-02-01 02:40:00,
2013-01-31 21:45:00,34.1,17.0,29.55,WNW,296,4.0,0.0,49,0.00,,,0.75,WeatherTracker,2013-02-01 02:45:00,
2013-01-31 21:55:00,33.8,17.2,29.56,NE,56,4.0,0.0,50,0.00,,,0.75,WeatherTracker,2013-02-01 02:55:00,
2013-01-31 22:00:00,33.6,17.0,29.56,NNW,336,2.0,0.0,50,0.00,,,0.75,WeatherTracker,2013-02-01 03:00:00,
2013-01-31 22:05:00,33.5,16.9,29.56,West,267,7.0,0.0,50,0.00,,,0.75,WeatherTracker,2013-02-01 03:05:00,
2013-01-31 22:10:00,33.3,17.1,29.56,North,355,10.0,0.0,51,0.00,,,0.75,WeatherTracker,2013-02-01 03:10:00,
2013-01-31 22:20:00,33.0,17.8,29.57,NW,325,7.0,0.0,53,0.00,,,0.75,WeatherTracker,2013-02-01 03:20:00,
2013-01-31 22:30:00,32.7,17.5,29.57,NW,316,8.0,0.0,53,0.00,,,0.75,WeatherTracker,2013-02-01 03:30:00,
2013-01-31 22:35:00,32.7,17.5,29.57,NW,320,7.0,0.0,53,0.00,,,0.75,WeatherTracker,2013-02-01 03:35:00,
2013-01-31 22:40:00,32.6,17.4,29.57,NNW,340,5.0,0.0,53,0.00,,,0.75,WeatherTracker,2013-02-01 03:40:00,
2013-01-31 22:50:00,32.4,17.6,29.58,NNW,336,2.0,0.0,54,0.00,,,0.75,WeatherTracker,2013-02-01 03:50:00,
2013-01-31 22:55:00,32.3,17.5,29.58,NNW,348,2.0,0.0,54,0.00,,,0.75,WeatherTracker,2013-02-01 03:55:00,
2013-01-31 23:05:00,32.0,17.7,29.58,North,355,3.0,0.0,55,0.00,,,0.75,WeatherTracker,2013-02-01 04:05:00,
2013-01-31 23:10:00,31.8,17.5,29.58,NNW,333,9.0,0.0,55,0.00,,,0.75,WeatherTracker,2013-02-01 04:10:00,
2013-01-31 23:15:00,31.7,17.8,29.58,WNW,288,4.0,0.0,56,0.00,,,0.75,WeatherTracker,2013-02-01 04:15:00,
2013-01-31 23:25:00,31.5,17.6,29.58,NE,34,2.0,0.0,56,0.00,,,0.75,WeatherTracker,2013-02-01 04:25:00,
2013-01-31 23:35:00,31.4,17.9,29.58,North,10,9.0,0.0,57,0.00,,,0.75,WeatherTracker,2013-02-01 04:35:00,
2013-01-31 23:40:00,31.4,17.9,29.59,WNW,298,8.0,0.0,57,0.00,,,0.75,WeatherTracker,2013-02-01 04:40:00,
2013-01-31 23:45:00,31.4,17.5,29.59,NNW,333,4.0,0.0,56,0.00,,,0.75,WeatherTracker,2013-02-01 04:45:00,
2013-01-31 23:50:00,31.4,17.5,29.59,WNW,298,11.0,0.0,56,0.00,,,0.75,WeatherTracker,2013-02-01 04:50:00,
2013-01-31 23:55:00,31.4,17.1,29.59,NW,317,5.0,0.0,55,0.00,,,0.75,WeatherTracker,2013-02-01 04:55:00,